{"data":{"norad_id":51777,"intl_designator":"2022-017K","name":"STARLINK-3625","alt_names":[],"object_type":"PAYLOAD","status":"ACTIVE","operator":null,"country":"US","launch_date":"2022-02-25","launch_site_code":"AFWTR","launch_vehicle":null,"mission":null,"orbit_class":"UNKNOWN","rcs_meters":null,"size_class":null,"mass_kg":null,"dimensions":null,"purposes":["comms"],"wikipedia_slug":null,"has_3d_model":false,"image_url":null,"decayed_at":null,"tle_current":{"epoch":"2026-09-20T00:22:21.220032Z","epoch_age_seconds":94097,"freshness":"FRESH","line1":"1 51777U 22017K   26263.01552338 -.00002334  00000+0 -56011-4 0  9995","line2":"2 51777  53.1586 174.2004 0001307 101.8559 258.2590 15.35404649252107","mean_motion":15.35404649,"eccentricity":0.0001307,"inclination_deg":53.1586,"raan_deg":174.2004,"arg_perigee_deg":101.8559,"mean_anomaly_deg":258.259,"bstar":-5.6011e-5,"rev_number":25210,"period_min":93.786351431062,"perigee_km":458.82513220579,"apogee_km":460.61254772235,"semimajor_km":6837.8558399641,"source":"CELESTRAK","updated_at":"2026-09-20T09:00:39.937749Z"}}}